Location: *
(46.4833°N, 7.6667°E)
Time: 02:54:43
(UTC+00:00)

CENTAUR R/B - Pass Details

Date: 27 February 2020
Orbit: 766 x 1422 km, 63.5° (Epoch: 12 March)

Event Time Altitude Azimuth Distance (km) Brightness Sun altitude
Rises 21:00:28 0° 319° (NW) 4,158 6.7 -38.6°
Reaches altitude 10° 21:03:10 10° 316° (NW) 3,268 5.9 -38.9°
Enters shadow 21:09:51 56° 274° (W) 1,582 3.6 -39.9°
